Regional Weather Roundup
Issued by NWS

Home | Current Version | Previous Version | Text Only | Print | Product List | Glossary On
Versions: 1 2 3 4 5 6 7 8 9 10 11 12 13 14 15 16 17 18 19 20 21 22 23 24 25 26 27 28 29 30 31 32 33 34 35 36 37 38 39 40 41 42 43 44 45 46 47 48 49 50
000
ASUS42 KFFC 292203
RWRGA
WEATHER ROUNDUP FOR GEORGIA
NATIONAL WEATHER SERVICE PEACHTREE CITY GA
600 PM EDT FRI APR 29 2016

NOTE: "FAIR" INDICATES FEW OR NO CLOUDS BELOW 12,000 FEET WITH NO
SIGNIFICANT WEATHER AND/OR OBSTRUCTIONS TO VISIBILITY.

* = USE WITH CAUTION. THE STATIONS MARKED WITH AN ASTERISK MAY NOT
REPORT WEATHER SUCH AS PRECIPITATION, FOG, OR THUNDER AND ARE NOT
QUALITY CONTROLLED BY NWS.

THE REMARK "TC" DENOTES TEMPERATURE READING IN DEGREES CELSIUS.

GAZ001>058-292300-
NORTH GEORGIA

CITY           SKY/WX    TMP DP  RH WIND       PRES   REMARKS
ATLANTA        CLOUDY    85  48  27 SW7       29.95S
ATHENS         CLOUDY    85  52  32 S5        29.94S
CHAMBLEE       CLOUDY    86  48  26 CALM      29.95S
PEACHTREE CITY CLOUDY    85  54  34 CALM      29.95S
ROME           CLOUDY    83  49  30 NE7       29.94F
WEST ATLANTA   CLOUDY    85  48  27 W6        29.94S
GAINESVILLE    MOSUNNY   83  46  27 W6        29.98F
CARTERSVILLE   CLOUDY    83  52  34 CALM      29.96S


CITY           SKY/WX    TMP DP  RH WIND       PRES   REMARKS
DALTON*        CLOUDY    79  55  44 N5        29.97R
LAWRENCEVILLE* SUNNY     86  46  25 CALM      29.96F
KENNESAW*      MOSUNNY   84  46  26 SW3       29.91R
CANTON*        CLOUDY    82  34  17 W5        29.99R
BLAIRSVILLE*     N/A    N/A N/A N/A MISG      29.99S
$$

GAZ059>098-102>109-292300-
CENTRAL GEORGIA

CITY           SKY/WX    TMP DP  RH WIND       PRES   REMARKS
AUGUSTA-BUSH   SUNNY     89  52  28 E5        29.90S
AUGUSTA-DANIEL LGT RAIN  90  54  29 S6        29.92S
COLUMBUS       SUNNY     86  56  35 SW8       29.92R
MACON          CLOUDY    89  54  30 E8        29.92S
ROBINS AFB     CLOUDY    87  57  35 NE6       29.91S


CITY           SKY/WX    TMP DP  RH WIND       PRES   REMARKS
LAGRANGE*      SUNNY     86  65  49 S3        29.95R
SYLVANIA*      SUNNY     91  57  32 CALM      29.92R
MILLEDGEVILLE* CLOUDY    88  54  31 CALM      29.92S
$$

GAZ099>101-110>166-292300-
SOUTH GEORGIA

CITY           SKY/WX    TMP DP  RH WIND       PRES   REMARKS
SAVANNAH       MOSUNNY   87  57  35 SE13      29.91S
VALDOSTA       SUNNY     89  63  41 CALM      29.90F HX  90
ALMA           SUNNY     89  58  34 SE3       29.90F
ST SIMONS      SUNNY     81  68  64 SE10      29.92S
FT STEWART     SUNNY     89  59  36 E10       29.87F
ALBANY         SUNNY     89  61  38 NW3       29.92S
HUNTER AFB     SUNNY     86  62  45 SE9       29.89S
MOODY AFB      SUNNY     88  60  38 S2        29.89F
BRUNSWICK      SUNNY     90  61  37 SE9       29.92S


CITY           SKY/WX    TMP DP  RH WIND       PRES   REMARKS
BAINBRIDGE*    MOSUNNY   88  68  51 W6        29.91S HX  91
MOULTRIE*      SUNNY     88  61  40 SW5       29.92R
VIDALIA*       SUNNY     90  55  31 W5        29.91S
WAYCROSS*      SUNNY     89  64  43 CALM      29.90F
DOUGLAS*       SUNNY     90  55  31 CALM      29.92S
$$



USA.gov is the U.S. government's official web portal to all federal, state and local government web resources and services.